Location: Jackson Park
(37.2862°N, 79.9123°W)
Time: 02:07:15
(UTC+00:00)

Tiros 1 despin weight - Pass Details

Date: 12 May 2026
Orbit: 554 x 591 km, 48.2° (Epoch: 6 June)

Event Time Altitude Azimuth Distance (km) Brightness Sun altitude
Rises 17:02:08 0° 306° (NW) 2,729 ? 70.7°
Reaches altitude 10° 17:04:24 10° 309° (NW) 1,833 ? 70.8°
Maximum altitude 17:08:33 65° 32° (NNE) 609 ? 70.9°
Drops below altitude 10° 17:12:43 10° 115° (ESE) 1,835 ? 71.0°
Sets 17:14:59 0° 118° (ESE) 2,732 ? 71.0°
